sat.trackr.live / text

‹ back to catalog

IRIDIUM 111

NORAD 41926 · 2017-003K

PAYLOAD ACTIVE UNKNOWN

§ Identity

Operator
Country
US
Launch date
2017-01-14
Launch site
AFWTR
Launch vehicle
Mass (kg)
RCS (m²)
2.63

Purposes: comms

External: N2YO · Heavens-Above · Gunter

§ Orbital elements

Epoch: 2026-05-24T22:59:06.250272Z

Period
100.40 min
Inclination
86.3948°
Eccentricity
0.0002358
Mean motion
14.34218582 rev/d
Perigee alt
776.0 km
Apogee alt
779.4 km
Semi-major
7,155.8 km
B*
4.3936e-5
RAAN
98.0885°
Arg perigee
85.3445°
Mean anomaly
274.8020°
Rev number
48,992

§ Raw data

IRIDIUM 1111 41926U 17003K   26144.95771123  .00000143  00000+0  43936-4 0  99912 41926  86.3948  98.0885 0002358  85.3445 274.8020 14.34218582489920

JSON: /api/v1/satellites/41926 · /tle

For live sub-satellite position, see the globe view (requires WebGL).

§ Visibility from observer

Set your observer location to see the next 7 days of passes ≥ 10°. The values pass through the URL so the page stays shareable.

No JS? Fill the form by hand. The geolocation button needs JavaScript.